This demonstration page uses our WeatherBlox Daily Observations layout. Learn more.

Left ArrowRight Arrow

Hourly Observations for May 25, 2017

Temp ( °F °C ) Dew Point ( °F °C ) Humidity (%) Winds ( mph kmh ) Pressure ( in mb ) Visibility ( mi km ) Precip ( " mm )
12:52 am 00:52 Clear 50 10 48 8.9 93 93 Calm 29.70 1006 10 16 0.00 0.00
1:52 am 01:52 Clear 49 9.4 48 8.9 97 97 SW 3 6 29.70 1006 9 14 0.00 0.00
2:52 am 02:52 Clear 47 8.3 46 7.8 97 97 SW 6 9 29.70 1006 7 11 0.00 0.00
3:52 am 03:52 Clear 48 8.9 47 8.3 96 96 SSW 3 6 29.71 1006 10 16 0.00 0.00
4:52 am 04:52 Clear 48 8.9 46 7.8 93 93 Calm 29.71 1006 10 16 0.00 0.00
5:52 am 05:52 Clear 46 7.8 44 6.7 93 93 SE 5 7 29.72 1006 10 16 0.00 0.00
6:52 am 06:52 Sunny 48 8.9 47 8.3 96 96 SSE 3 6 29.73 1007 10 16 0.00 0.00
7:52 am 07:52 Sunny 55 12.8 51 10.6 87 87 S 6 9 29.74 1007 10 16 0.00 0.00
8:52 am 08:52 Sunny 60 15.6 52 11.1 75 75 S 7 11 29.76 1008 10 16 0.00 0.00
9:52 am 09:52 Sunny 63 17.2 52 11.1 68 68 S 8 13 29.76 1008 10 16 0.00 0.00
10:52 am 10:52 Sunny 66 18.9 51 10.6 59 59 SSW 10 17 29.75 1007 10 16 0.00 0.00
11:52 am 11:52 Sunny 68 20 50 10 53 53 S 10 17 29.74 1007 10 16 0.00 0.00
12:52 pm 12:52 Sunny 71 21.7 52 11.1 51 51 S 13 20 29.72 1006 10 16 0.00 0.00
1:52 pm 13:52 Sunny 73 22.8 50 10 44 44 SSE 9 15 29.70 1006 10 16 0.00 0.00
2:52 pm 14:52 Sunny 74 23.3 52 11.1 46 46 S 10 17 29.68 1005 10 16 0.00 0.00
3:52 pm 15:52 Sunny 76 24.4 54 12.2 47 47 SSE 13 20 29.66 1005 10 16 0.00 0.00
4:52 pm 16:52 Sunny 76 24.4 54 12.2 47 47 S 13 20 29.65 1004 10 16 0.00 0.00
5:52 pm 17:52 Sunny 76 24.4 55 12.8 48 48 SSE 16 26 29.64 1004 10 16 0.00 0.00
6:52 pm 18:52 Sunny 75 23.9 56 13.3 52 52 SSE 17 28 29.62 1003 10 16 0.00 0.00
7:52 pm 19:52 Sunny 73 22.8 55 12.8 53 53 SSE 17 28 29.62 1003 10 16 0.00 0.00
8:52 pm 20:52 Clear 71 21.7 56 13.3 59 59 SSE 17 28 29.62 1003 10 16 0.00 0.00
9:52 pm 21:52 Clear 70 21.1 56 13.3 61 61 SSE 14 22 29.65 1004 10 16 0.00 0.00
10:52 pm 22:52 Clear 69 20.6 56 13.3 63 63 SSE 15 24 29.68 1005 10 16 0.00 0.00
11:52 pm 23:52 Clear 68 20 56 13.3 65 65 SSE 16 26 29.68 1005 10 16 0.00 0.00

Powered by AerisWeather